sat.trackr.live / text

‹ back to catalog

STARLINK-32221

NORAD 60342 · 2024-136P

PAYLOAD ACTIVE UNKNOWN

§ Identity

Operator
Country
US
Launch date
2024-08-02
Launch site
AFETR
Launch vehicle
Mass (kg)
RCS (m²)

Purposes: comms

External: N2YO · Heavens-Above · Gunter

§ Orbital elements

Epoch: 2026-09-21T05:42:04.171392Z

Period
93.85 min
Inclination
53.1600°
Eccentricity
0.0001236
Mean motion
15.34393549 rev/d
Perigee alt
461.9 km
Apogee alt
463.6 km
Semi-major
6,840.9 km
B*
1.1784e-5
RAAN
245.9611°
Arg perigee
84.1388°
Mean anomaly
275.9756°
Rev number
11,962

§ Raw data

STARLINK-322211 60342U 24136P   26264.23754828  .00000022  00000+0  11784-4 0  99982 60342  53.1600 245.9611 0001236  84.1388 275.9756 15.34393549119620

JSON: /api/v1/satellites/60342 · /tle

For live sub-satellite position, see the globe view (requires WebGL).

§ Visibility from observer

Set your observer location to see the next 7 days of passes ≥ 10°. The values pass through the URL so the page stays shareable.

No JS? Fill the form by hand. The geolocation button needs JavaScript.